Location: Tel Aviv
(32.0670°N, 34.7670°E)
Time: 09:47:21
(UTC+02:00)

Vanguard 1 Rocket - Pass Details

Date: 10 December 2023
Orbit: 653 x 4219 km, 34.3° (Epoch: 28 February)

Event Time Altitude Azimuth Distance (km) Brightness Sun altitude
Exits shadow 01:07:56 45° 126° (SE) 4,903 10.9 -67.2°
Drops below altitude 10° 01:24:30 10° 78° (ENE) 6,156 11.9 -63.8°
Sets 01:28:41 0° 72° (ENE) 6,783 12.2 -62.9°
